Location: Unspecified
(41.5000°N, 0.0000°E)
Time: 22:50:16
(UTC+00:00)

Vanguard 2 - Pass Details

Date: 26 June 2019
Orbit: 553 x 2938 km, 32.9° (Epoch: 20 July)

Event Time Altitude Azimuth Distance (km) Brightness Sun altitude
Rises 09:02:25 0° 254° (WSW) 3,066 10.3 48.4°
Reaches altitude 10° 09:04:33 10° 246° (WSW) 2,318 9.8 48.8°
Maximum altitude 09:09:35 40° 177° (S) 1,453 9.6 49.7°
Drops below altitude 10° 09:17:25 10° 112° (ESE) 3,612 11.8 51.2°
Sets 09:21:33 0° 106° (ESE) 5,020 12.3 51.9°
